Time,TemperatureF,DewpointF,PressureIn,WindDirection,WindDirectionDegrees,WindSpeedMPH,WindSpeedGustMPH,Humidity,HourlyPrecipIn,Conditions,Clouds,dailyrainin,SoftwareType,DateUTC
2013-04-25 00:01:00,44.6,29.0,29.86,WSW,248,17.2,17.2,54,0.00,,,0.00,WUHU216HW,2013-04-25 05:01:00,
2013-04-25 00:06:00,44.8,29.2,29.86,WSW,248,12.5,17.2,54,0.00,,,0.00,WUHU216HW,2013-04-25 05:06:00,
2013-04-25 00:11:00,44.8,29.6,29.86,WSW,248,12.1,17.2,55,0.00,,,0.00,WUHU216HW,2013-04-25 05:11:00,
2013-04-25 00:16:00,45.0,30.3,29.86,WSW,248,12.8,15.4,56,0.00,,,0.00,WUHU216HW,2013-04-25 05:16:00,
2013-04-25 00:21:00,44.8,30.5,29.86,WSW,248,17.7,18.1,57,0.00,,,0.00,WUHU216HW,2013-04-25 05:21:00,
2013-04-25 00:26:00,44.5,31.1,29.86,WSW,248,11.4,22.4,59,0.00,,,0.00,WUHU216HW,2013-04-25 05:26:00,
2013-04-25 00:31:00,44.3,32.0,29.86,SW,225,13.6,22.4,62,0.00,,,0.00,WUHU216HW,2013-04-25 05:31:00,
2013-04-25 00:36:00,44.1,32.3,29.86,WSW,248,15.0,18.6,63,0.00,,,0.00,WUHU216HW,2013-04-25 05:36:00,
2013-04-25 00:41:00,43.9,32.1,29.86,SW,225,9.8,18.6,63,0.00,,,0.00,WUHU216HW,2013-04-25 05:41:00,
2013-04-25 00:46:00,43.9,32.5,29.85,WSW,248,16.3,20.4,64,0.00,,,0.00,WUHU216HW,2013-04-25 05:46:00,
2013-04-25 00:51:00,43.7,32.3,29.85,SSW,203,8.1,20.4,64,0.00,,,0.00,WUHU216HW,2013-04-25 05:51:00,
2013-04-25 00:56:00,43.6,33.0,29.85,SSW,203,13.0,19.2,66,0.00,,,0.00,WUHU216HW,2013-04-25 05:56:00,
2013-04-25 01:01:00,43.6,33.3,29.85,SW,225,13.0,16.3,67,0.00,,,0.00,WUHU216HW,2013-04-25 06:01:00,
2013-04-25 01:06:00,43.2,33.4,29.85,WSW,248,11.4,20.8,68,0.00,,,0.00,WUHU216HW,2013-04-25 06:06:00,
2013-04-25 01:11:00,43.0,33.2,29.85,SW,225,14.3,20.8,68,0.00,,,0.00,WUHU216HW,2013-04-25 06:11:00,
2013-04-25 01:16:00,42.8,33.5,29.85,SW,225,9.8,18.6,69,0.00,,,0.00,WUHU216HW,2013-04-25 06:16:00,
2013-04-25 01:21:00,42.8,33.8,29.85,WSW,248,13.9,18.6,70,0.00,,,0.00,WUHU216HW,2013-04-25 06:21:00,
2013-04-25 01:26:00,42.8,33.8,29.85,SW,225,12.1,23.7,70,0.00,,,0.00,WUHU216HW,2013-04-25 06:26:00,
2013-04-25 01:31:00,42.7,33.7,29.85,SW,225,15.2,23.7,70,0.00,,,0.00,WUHU216HW,2013-04-25 06:31:00,
2013-04-25 01:36:00,42.5,33.5,29.84,SW,225,14.8,19.5,70,0.00,,,0.00,WUHU216HW,2013-04-25 06:36:00,
2013-04-25 01:41:00,42.3,33.7,29.84,WSW,248,12.8,19.5,71,0.00,,,0.00,WUHU216HW,2013-04-25 06:41:00,
2013-04-25 01:46:00,42.1,33.1,29.84,WSW,248,14.3,19.2,70,0.00,,,0.00,WUHU216HW,2013-04-25 06:46:00,
2013-04-25 01:51:00,42.1,33.5,29.84,WSW,248,13.6,19.2,71,0.00,,,0.00,WUHU216HW,2013-04-25 06:51:00,
2013-04-25 01:56:00,41.9,33.3,29.84,SW,225,12.3,19.2,71,0.00,,,0.00,WUHU216HW,2013-04-25 06:56:00,
2013-04-25 02:01:00,41.8,33.4,29.84,SW,225,15.9,19.2,72,0.00,,,0.00,WUHU216HW,2013-04-25 07:01:00,
2013-04-25 02:06:00,41.8,33.4,29.84,SW,225,14.8,17.4,72,0.00,,,0.00,WUHU216HW,2013-04-25 07:06:00,
2013-04-25 02:11:00,41.9,33.6,29.84,SW,225,15.9,19.7,72,0.00,,,0.00,WUHU216HW,2013-04-25 07:11:00,
2013-04-25 02:16:00,41.9,33.6,29.84,WSW,248,16.3,19.7,72,0.00,,,0.00,WUHU216HW,2013-04-25 07:16:00,
2013-04-25 02:21:00,41.9,33.6,29.84,SW,225,15.2,16.8,72,0.00,,,0.00,WUHU216HW,2013-04-25 07:21:00,
2013-04-25 02:26:00,41.9,33.9,29.84,WSW,248,9.8,16.8,73,0.00,,,0.00,WUHU216HW,2013-04-25 07:26:00,
2013-04-25 02:31:00,41.8,33.8,29.84,WSW,248,14.8,18.8,73,0.00,,,0.00,WUHU216HW,2013-04-25 07:31:00,
2013-04-25 02:36:00,41.6,33.8,29.83,WSW,248,10.5,18.8,74,0.00,,,0.00,WUHU216HW,2013-04-25 07:36:00,
2013-04-25 02:41:00,41.2,33.8,29.83,SSW,203,16.8,17.2,75,0.00,,,0.00,WUHU216HW,2013-04-25 07:41:00,
2013-04-25 02:46:00,40.9,33.5,29.83,SSW,203,8.3,16.8,75,0.00,,,0.00,WUHU216HW,2013-04-25 07:46:00,
2013-04-25 02:51:00,40.7,33.7,29.83,WSW,248,7.6,14.5,76,0.00,,,0.00,WUHU216HW,2013-04-25 07:51:00,
2013-04-25 02:56:00,40.5,33.9,29.83,WSW,248,10.5,15.7,77,0.00,,,0.00,WUHU216HW,2013-04-25 07:56:00,
2013-04-25 03:01:00,40.5,33.9,29.83,WSW,248,11.4,15.7,77,0.00,,,0.00,WUHU216HW,2013-04-25 08:01:00,
2013-04-25 03:06:00,40.5,34.1,29.84,WSW,248,13.6,14.5,78,0.00,,,0.00,WUHU216HW,2013-04-25 08:06:00,
2013-04-25 03:11:00,40.3,33.9,29.85,WNW,293,11.2,14.5,78,0.01,,,0.01,WUHU216HW,2013-04-25 08:11:00,
2013-04-25 03:16:00,38.9,32.6,29.85,WSW,248,12.1,16.6,78,0.01,,,0.01,WUHU216HW,2013-04-25 08:16:00,
2013-04-25 03:21:00,38.0,32.0,29.84,WSW,248,15.7,18.1,79,0.02,,,0.02,WUHU216HW,2013-04-25 08:21:00,
2013-04-25 03:26:00,37.8,32.2,29.84,WSW,248,11.4,18.1,80,0.04,,,0.03,WUHU216HW,2013-04-25 08:26:00,
2013-04-25 03:31:00,37.6,32.6,29.85,WSW,248,11.2,15.9,82,0.04,,,0.04,WUHU216HW,2013-04-25 08:31:00,
2013-04-25 03:36:00,37.6,32.6,29.85,SW,225,9.4,12.8,82,0.05,,,0.05,WUHU216HW,2013-04-25 08:36:00,
2013-04-25 03:41:00,37.8,33.1,29.85,WSW,248,8.3,11.9,83,0.05,,,0.05,WUHU216HW,2013-04-25 08:41:00,
2013-04-25 03:46:00,37.8,33.1,29.85,WSW,248,9.2,11.4,83,0.06,,,0.07,WUHU216HW,2013-04-25 08:46:00,
2013-04-25 03:51:00,37.8,33.1,29.85,WSW,248,8.1,11.4,83,0.06,,,0.07,WUHU216HW,2013-04-25 08:51:00,
2013-04-25 03:56:00,37.8,33.1,29.86,WSW,248,7.8,10.3,83,0.06,,,0.07,WUHU216HW,2013-04-25 08:56:00,
2013-04-25 04:01:00,37.6,33.2,29.86,WSW,248,4.7,9.2,84,0.07,,,0.07,WUHU216HW,2013-04-25 09:01:00,
2013-04-25 04:06:00,37.4,33.3,29.86,SW,225,5.8,7.8,85,0.07,,,0.07,WUHU216HW,2013-04-25 09:06:00,
2013-04-25 04:11:00,37.4,33.3,29.86,West,270,6.0,7.6,85,0.06,,,0.07,WUHU216HW,2013-04-25 09:11:00,
2013-04-25 04:16:00,37.4,33.3,29.86,West,270,4.7,6.9,85,0.05,,,0.07,WUHU216HW,2013-04-25 09:16:00,
2013-04-25 04:21:00,37.4,33.0,29.86,WSW,248,6.5,8.1,84,0.05,,,0.08,WUHU216HW,2013-04-25 09:21:00,
2013-04-25 04:26:00,37.4,33.0,29.87,WNW,293,9.8,9.8,84,0.04,,,0.08,WUHU216HW,2013-04-25 09:26:00,
2013-04-25 04:31:00,37.4,33.0,29.86,West,270,7.6,9.8,84,0.04,,,0.08,WUHU216HW,2013-04-25 09:31:00,
2013-04-25 04:36:00,37.3,32.6,29.87,West,270,4.7,9.8,83,0.03,,,0.08,WUHU216HW,2013-04-25 09:36:00,
2013-04-25 04:41:00,37.1,32.4,29.87,WSW,248,7.6,8.7,83,0.02,,,0.08,WUHU216HW,2013-04-25 09:41:00,
2013-04-25 04:46:00,36.9,32.5,29.87,WSW,248,6.9,7.8,84,0.02,,,0.08,WUHU216HW,2013-04-25 09:46:00,
2013-04-25 04:51:00,36.7,32.1,29.87,WSW,248,4.5,6.9,83,0.02,,,0.08,WUHU216HW,2013-04-25 09:51:00,
2013-04-25 04:56:00,36.7,32.1,29.88,WSW,248,5.1,6.3,83,0.01,,,0.08,WUHU216HW,2013-04-25 09:56:00,
2013-04-25 05:01:00,36.5,31.9,29.88,WSW,248,4.5,6.5,83,0.01,,,0.08,WUHU216HW,2013-04-25 10:01:00,
2013-04-25 05:06:00,36.5,31.9,29.88,WSW,248,5.1,6.9,83,0.01,,,0.08,WUHU216HW,2013-04-25 10:06:00,
2013-04-25 05:11:00,36.5,32.1,29.88,WSW,248,5.8,7.2,84,0.01,,,0.08,WUHU216HW,2013-04-25 10:11:00,
2013-04-25 05:16:00,36.7,32.3,29.88,WSW,248,4.7,7.8,84,0.00,,,0.08,WUHU216HW,2013-04-25 10:16:00,
2013-04-25 05:20:00,36.7,32.1,29.88,WNW,293,4.3,7.8,83,0.01,,,0.09,WUHU216HW,2013-04-25 10:20:00,
2013-04-25 05:25:00,36.7,32.3,29.89,West,270,5.1,7.6,84,0.01,,,0.09,WUHU216HW,2013-04-25 10:25:00,
2013-04-25 05:30:00,36.7,32.3,29.89,West,270,7.6,9.8,84,0.01,,,0.09,WUHU216HW,2013-04-25 10:30:00,
2013-04-25 05:35:00,36.7,32.3,29.89,WSW,248,6.3,9.8,84,0.01,,,0.09,WUHU216HW,2013-04-25 10:35:00,
2013-04-25 05:40:00,36.5,31.9,29.89,WSW,248,4.7,9.2,83,0.01,,,0.09,WUHU216HW,2013-04-25 10:40:00,
2013-04-25 05:45:00,36.5,32.1,29.90,West,270,4.7,9.2,84,0.01,,,0.09,WUHU216HW,2013-04-25 10:45:00,
2013-04-25 05:50:00,36.5,31.9,29.90,WNW,293,6.9,10.7,83,0.01,,,0.09,WUHU216HW,2013-04-25 10:50:00,
2013-04-25 05:55:00,36.7,32.1,29.90,West,270,7.2,10.7,83,0.01,,,0.09,WUHU216HW,2013-04-25 10:55:00,
2013-04-25 06:00:00,36.7,32.1,29.90,WSW,248,6.9,10.7,83,0.01,,,0.09,WUHU216HW,2013-04-25 11:00:00,
2013-04-25 06:05:00,36.7,32.1,29.90,West,270,6.3,13.6,83,0.01,,,0.09,WUHU216HW,2013-04-25 11:05:00,
2013-04-25 06:10:00,36.7,32.1,29.91,WSW,248,9.2,13.6,83,0.01,,,0.09,WUHU216HW,2013-04-25 11:10:00,
2013-04-25 06:15:00,36.5,31.9,29.91,West,270,4.7,10.7,83,0.01,,,0.09,WUHU216HW,2013-04-25 11:15:00,
2013-04-25 06:20:00,36.5,31.9,29.91,West,270,7.6,10.3,83,0.00,,,0.09,WUHU216HW,2013-04-25 11:20:00,
2013-04-25 06:25:00,36.7,32.1,29.91,WSW,248,7.4,10.3,83,0.00,,,0.09,WUHU216HW,2013-04-25 11:25:00,
2013-04-25 06:30:00,36.7,32.1,29.92,WSW,248,5.4,10.3,83,0.00,,,0.09,WUHU216HW,2013-04-25 11:30:00,
2013-04-25 06:35:00,36.9,31.9,29.92,WSW,248,6.5,12.1,82,0.01,,,0.10,WUHU216HW,2013-04-25 11:35:00,
2013-04-25 06:40:00,37.1,32.0,29.92,West,270,4.7,12.1,82,0.01,,,0.10,WUHU216HW,2013-04-25 11:40:00,
2013-04-25 06:45:00,37.6,32.6,29.93,NNW,338,6.0,12.5,82,0.01,,,0.10,WUHU216HW,2013-04-25 11:45:00,
2013-04-25 06:50:00,37.8,32.2,29.93,West,270,5.4,12.5,80,0.01,,,0.10,WUHU216HW,2013-04-25 11:50:00,
2013-04-25 06:55:00,38.2,32.6,29.93,NW,315,4.9,9.8,80,0.01,,,0.10,WUHU216HW,2013-04-25 11:55:00,
2013-04-25 07:00:00,39.2,33.3,29.94,West,270,6.0,9.8,79,0.01,,,0.10,WUHU216HW,2013-04-25 12:00:00,
2013-04-25 07:05:00,40.0,33.9,29.94,WNW,293,6.9,13.9,79,0.01,,,0.10,WUHU216HW,2013-04-25 12:05:00,
2013-04-25 07:10:00,39.2,33.3,29.94,WSW,248,12.5,13.9,79,0.01,,,0.10,WUHU216HW,2013-04-25 12:10:00,
2013-04-25 07:15:00,38.9,33.3,29.94,WNW,293,9.4,14.1,80,0.01,,,0.10,WUHU216HW,2013-04-25 12:15:00,
2013-04-25 07:20:00,38.5,32.9,29.95,West,270,5.6,14.1,80,0.01,,,0.10,WUHU216HW,2013-04-25 12:20:00,
2013-04-25 07:25:00,38.3,33.0,29.94,WNW,293,8.1,11.4,81,0.01,,,0.10,WUHU216HW,2013-04-25 12:25:00,
2013-04-25 07:30:00,38.7,33.7,29.95,WNW,293,10.3,11.4,82,0.01,,,0.10,WUHU216HW,2013-04-25 12:30:00,
2013-04-25 07:35:00,38.5,33.5,29.95,WNW,293,10.1,14.5,82,0.00,,,0.10,WUHU216HW,2013-04-25 12:35:00,
2013-04-25 07:40:00,39.1,34.0,29.95,West,270,7.4,14.5,82,0.00,,,0.10,WUHU216HW,2013-04-25 12:40:00,
2013-04-25 07:45:00,39.2,33.9,29.96,NNW,338,3.8,11.6,81,0.00,,,0.10,WUHU216HW,2013-04-25 12:45:00,
2013-04-25 07:50:00,39.2,33.9,29.96,WSW,248,11.0,11.6,81,0.00,,,0.10,WUHU216HW,2013-04-25 12:50:00,
2013-04-25 07:55:00,39.1,33.8,29.96,WSW,248,10.5,11.4,81,0.00,,,0.10,WUHU216HW,2013-04-25 12:55:00,
2013-04-25 08:00:00,38.7,33.4,29.97,West,270,5.1,15.2,81,0.00,,,0.10,WUHU216HW,2013-04-25 13:00:00,
2013-04-25 08:05:00,38.7,33.7,29.97,WSW,248,8.3,15.2,82,0.00,,,0.10,WUHU216HW,2013-04-25 13:05:00,
2013-04-25 08:10:00,38.9,33.8,29.97,WNW,293,5.1,12.1,82,0.00,,,0.10,WUHU216HW,2013-04-25 13:10:00,
2013-04-25 08:15:00,39.2,33.9,29.97,WNW,293,8.1,12.3,81,0.00,,,0.10,WUHU216HW,2013-04-25 13:15:00,
2013-04-25 08:20:00,39.6,34.0,29.98,West,270,4.5,12.3,80,0.00,,,0.10,WUHU216HW,2013-04-25 13:20:00,
2013-04-25 08:25:00,39.4,33.5,29.98,WSW,248,8.1,15.7,79,0.00,,,0.10,WUHU216HW,2013-04-25 13:25:00,
2013-04-25 08:30:00,39.6,33.7,29.98,NW,315,10.1,17.9,79,0.00,,,0.10,WUHU216HW,2013-04-25 13:30:00,
2013-04-25 08:35:00,40.0,33.9,29.98,West,270,8.9,17.9,79,0.00,,,0.10,WUHU216HW,2013-04-25 13:35:00,
2013-04-25 08:40:00,40.0,33.9,29.99,NW,315,3.4,14.3,79,0.00,,,0.10,WUHU216HW,2013-04-25 13:40:00,
2013-04-25 08:45:00,40.0,33.9,29.99,West,270,9.2,13.4,79,0.00,,,0.10,WUHU216HW,2013-04-25 13:45:00,
2013-04-25 08:50:00,39.8,33.9,29.99,WNW,293,11.2,16.6,79,0.00,,,0.10,WUHU216HW,2013-04-25 13:50:00,
2013-04-25 08:55:00,40.0,33.9,29.99,West,270,11.0,16.6,79,0.00,,,0.10,WUHU216HW,2013-04-25 13:55:00,
2013-04-25 09:00:00,40.0,33.3,29.99,West,270,9.8,16.3,77,0.00,,,0.10,WUHU216HW,2013-04-25 14:00:00,
2013-04-25 09:05:00,40.0,33.3,29.99,West,270,5.4,17.2,77,0.00,,,0.10,WUHU216HW,2013-04-25 14:05:00,
2013-04-25 09:10:00,40.9,34.1,29.99,SW,225,6.9,17.2,77,0.00,,,0.10,WUHU216HW,2013-04-25 14:10:00,
2013-04-25 09:15:00,41.4,33.7,30.00,NNW,338,7.6,15.7,74,0.00,,,0.10,WUHU216HW,2013-04-25 14:15:00,
2013-04-25 09:20:00,41.0,33.7,30.00,NNW,338,10.7,15.7,75,0.00,,,0.10,WUHU216HW,2013-04-25 14:20:00,
2013-04-25 09:25:00,41.4,33.7,30.00,West,270,8.3,13.6,74,0.00,,,0.10,WUHU216HW,2013-04-25 14:25:00,
2013-04-25 09:30:00,41.4,33.4,30.00,West,270,6.9,13.6,73,0.00,,,0.10,WUHU216HW,2013-04-25 14:30:00,
2013-04-25 09:35:00,41.8,34.0,30.00,WSW,248,4.7,13.2,74,0.00,,,0.10,WUHU216HW,2013-04-25 14:35:00,
2013-04-25 09:40:00,42.3,33.9,30.00,NW,315,5.4,12.1,72,0.00,,,0.10,WUHU216HW,2013-04-25 14:40:00,
2013-04-25 09:45:00,42.1,33.1,30.00,NNW,338,9.6,14.3,70,0.00,,,0.10,WUHU216HW,2013-04-25 14:45:00,
2013-04-25 09:50:00,42.5,33.9,30.01,WSW,248,10.7,14.3,71,0.00,,,0.10,WUHU216HW,2013-04-25 14:50:00,
2013-04-25 09:55:00,42.8,33.5,30.01,WSW,248,4.7,13.4,69,0.00,,,0.10,WUHU216HW,2013-04-25 14:55:00,
2013-04-25 10:00:00,43.2,33.4,30.01,NW,315,9.8,16.1,68,0.00,,,0.10,WUHU216HW,2013-04-25 15:00:00,
2013-04-25 10:05:00,43.4,33.9,30.02,West,270,4.5,16.1,69,0.00,,,0.10,WUHU216HW,2013-04-25 15:05:00,
2013-04-25 10:10:00,43.6,33.8,30.02,NW,315,8.5,11.9,68,0.00,,,0.10,WUHU216HW,2013-04-25 15:10:00,
2013-04-25 10:15:00,43.4,33.1,30.02,NW,315,14.1,14.1,67,0.00,,,0.10,WUHU216HW,2013-04-25 15:15:00,
2013-04-25 10:20:00,43.0,32.4,30.03,West,270,9.8,17.9,66,0.00,,,0.10,WUHU216HW,2013-04-25 15:20:00,
2013-04-25 10:25:00,43.9,34.0,30.03,WSW,248,12.3,17.9,68,0.00,,,0.10,WUHU216HW,2013-04-25 15:25:00,
2013-04-25 10:30:00,44.3,34.0,30.03,WSW,248,8.1,15.0,67,0.00,,,0.10,WUHU216HW,2013-04-25 15:30:00,
2013-04-25 10:35:00,43.9,33.7,30.03,WSW,248,8.5,14.3,67,0.00,,,0.10,WUHU216HW,2013-04-25 15:35:00,
2013-04-25 10:40:00,43.9,34.0,30.04,West,270,8.3,14.3,68,0.00,,,0.10,WUHU216HW,2013-04-25 15:40:00,
2013-04-25 10:45:00,43.6,33.3,30.04,WSW,248,10.3,14.3,67,0.00,,,0.10,WUHU216HW,2013-04-25 15:45:00,
2013-04-25 10:50:00,43.4,33.1,30.04,NW,315,12.3,13.0,67,0.00,,,0.10,WUHU216HW,2013-04-25 15:50:00,
2013-04-25 10:55:00,44.3,33.6,30.04,West,270,3.6,12.3,66,0.00,,,0.10,WUHU216HW,2013-04-25 15:55:00,
2013-04-25 11:00:00,45.0,33.9,30.04,WNW,293,10.5,12.3,65,0.00,,,0.10,WUHU216HW,2013-04-25 16:00:00,
2013-04-25 11:05:00,44.3,32.5,30.04,WSW,248,12.5,15.0,63,0.00,,,0.10,WUHU216HW,2013-04-25 16:05:00,
2013-04-25 11:10:00,43.9,32.9,30.04,West,270,10.1,15.0,65,0.00,,,0.10,WUHU216HW,2013-04-25 16:10:00,
2013-04-25 11:15:00,45.2,33.7,30.04,SW,225,9.2,14.8,64,0.00,,,0.10,WUHU216HW,2013-04-25 16:15:00,
2013-04-25 11:20:00,45.7,32.7,30.04,NW,315,9.4,14.1,60,0.00,,,0.10,WUHU216HW,2013-04-25 16:20:00,
2013-04-25 11:25:00,45.5,33.3,30.05,NW,315,6.7,14.3,62,0.00,,,0.10,WUHU216HW,2013-04-25 16:25:00,
2013-04-25 11:30:00,44.6,29.9,30.05,WNW,293,11.4,14.3,56,0.00,,,0.10,WUHU216HW,2013-04-25 16:30:00,
2013-04-25 11:35:00,44.8,31.0,30.05,WSW,248,7.8,13.9,58,0.00,,,0.10,WUHU216HW,2013-04-25 16:35:00,
2013-04-25 11:40:00,45.9,31.5,30.05,WSW,248,9.8,12.3,57,0.00,,,0.10,WUHU216HW,2013-04-25 16:40:00,
2013-04-25 11:45:00,45.5,30.7,30.05,WSW,248,7.4,12.3,56,0.00,,,0.10,WUHU216HW,2013-04-25 16:45:00,
2013-04-25 11:50:00,46.1,31.6,30.05,WSW,248,9.8,14.3,57,0.00,,,0.10,WUHU216HW,2013-04-25 16:50:00,
2013-04-25 11:55:00,47.0,33.0,30.06,WSW,248,16.3,16.3,58,0.00,,,0.10,WUHU216HW,2013-04-25 16:55:00,
2013-04-25 12:00:00,47.0,32.5,30.06,NW,315,5.4,18.8,57,0.00,,,0.10,WUHU216HW,2013-04-25 17:00:00,
2013-04-25 12:05:00,45.9,31.5,30.06,West,270,6.7,18.8,57,0.00,,,0.10,WUHU216HW,2013-04-25 17:05:00,
2013-04-25 12:10:00,47.2,32.7,30.06,WSW,248,5.4,13.6,57,0.00,,,0.10,WUHU216HW,2013-04-25 17:10:00,
2013-04-25 12:15:00,47.3,30.5,30.06,NNW,338,5.1,10.5,52,0.00,,,0.10,WUHU216HW,2013-04-25 17:15:00,
2013-04-25 12:20:00,46.4,30.2,30.06,WNW,293,7.2,13.0,53,0.00,,,0.10,WUHU216HW,2013-04-25 17:20:00,
2013-04-25 12:25:00,46.3,31.3,30.06,NNW,338,6.7,13.0,56,0.00,,,0.10,WUHU216HW,2013-04-25 17:25:00,
2013-04-25 12:30:00,47.0,31.6,30.06,WNW,293,8.1,17.4,55,0.00,,,0.10,WUHU216HW,2013-04-25 17:30:00,
2013-04-25 12:35:00,46.8,31.4,30.07,West,270,8.5,17.9,55,0.00,,,0.10,WUHU216HW,2013-04-25 17:35:00,
2013-04-25 12:40:00,47.7,30.0,30.07,WNW,293,6.9,17.9,50,0.00,,,0.10,WUHU216HW,2013-04-25 17:40:00,
2013-04-25 12:45:00,48.6,30.8,30.07,SW,225,9.8,13.6,50,0.00,,,0.10,WUHU216HW,2013-04-25 17:45:00,
2013-04-25 12:50:00,49.3,31.5,30.07,NNW,338,10.3,13.6,50,0.00,,,0.10,WUHU216HW,2013-04-25 17:50:00,
2013-04-25 12:55:00,48.1,30.2,30.07,NW,315,6.3,13.0,50,0.00,,,0.10,WUHU216HW,2013-04-25 17:55:00,
2013-04-25 13:00:00,46.8,29.6,30.07,NW,315,12.1,14.3,51,0.00,,,0.10,WUHU216HW,2013-04-25 18:00:00,
2013-04-25 13:05:00,46.4,29.3,30.07,WNW,293,10.1,14.3,51,0.00,,,0.10,WUHU216HW,2013-04-25 18:05:00,
2013-04-25 13:10:00,46.4,28.8,30.07,WNW,293,7.4,13.4,50,0.00,,,0.10,WUHU216HW,2013-04-25 18:10:00,
2013-04-25 13:14:00,47.2,29.9,30.07,West,270,9.8,12.3,51,0.00,,,0.10,WUHU216HW,2013-04-25 18:14:00,
2013-04-25 13:19:00,47.9,30.6,30.07,SW,225,6.9,14.3,51,0.00,,,0.10,WUHU216HW,2013-04-25 18:19:00,
2013-04-25 13:25:00,47.9,30.6,30.07,WSW,248,13.4,14.3,51,0.00,,,0.10,WUHU216HW,2013-04-25 18:25:00,
2013-04-25 13:30:00,48.6,30.3,30.08,WSW,248,10.5,15.0,49,0.00,,,0.10,WUHU216HW,2013-04-25 18:30:00,
2013-04-25 13:35:00,48.2,29.9,30.08,WNW,293,7.8,13.4,49,0.00,,,0.10,WUHU216HW,2013-04-25 18:35:00,
2013-04-25 13:40:00,47.9,29.0,30.08,WSW,248,10.3,12.5,48,0.00,,,0.10,WUHU216HW,2013-04-25 18:40:00,
2013-04-25 13:45:00,49.0,30.1,30.08,West,270,8.5,11.4,48,0.00,,,0.10,WUHU216HW,2013-04-25 18:45:00,
2013-04-25 13:50:00,48.6,29.7,30.09,West,270,8.5,12.8,48,0.00,,,0.10,WUHU216HW,2013-04-25 18:50:00,
2013-04-25 13:55:00,48.2,28.3,30.09,NW,315,4.7,12.8,46,0.00,,,0.10,WUHU216HW,2013-04-25 18:55:00,
2013-04-25 14:00:00,47.9,27.9,30.09,NNW,338,17.2,17.2,46,0.00,,,0.10,WUHU216HW,2013-04-25 19:00:00,
2013-04-25 14:05:00,47.9,29.0,30.09,West,270,8.7,17.2,48,0.00,,,0.10,WUHU216HW,2013-04-25 19:05:00,
2013-04-25 14:10:00,49.3,28.7,30.09,WNW,293,11.6,17.2,45,0.00,,,0.10,WUHU216HW,2013-04-25 19:10:00,
2013-04-25 14:15:00,50.2,29.1,30.09,WSW,248,9.2,18.1,44,0.00,,,0.10,WUHU216HW,2013-04-25 19:15:00,
2013-04-25 14:20:00,50.4,30.9,30.10,SW,225,10.5,18.1,47,0.00,,,0.10,WUHU216HW,2013-04-25 19:20:00,
2013-04-25 14:25:00,48.8,29.4,30.09,NNW,338,6.7,11.4,47,0.00,,,0.10,WUHU216HW,2013-04-25 19:25:00,
2013-04-25 14:30:00,47.9,29.5,30.09,WNW,293,9.2,11.9,49,0.00,,,0.10,WUHU216HW,2013-04-25 19:30:00,
2013-04-25 14:35:00,47.5,29.3,30.09,NNW,338,2.0,11.9,49,0.00,,,0.10,WUHU216HW,2013-04-25 19:35:00,
2013-04-25 14:40:00,47.9,30.1,30.09,West,270,2.5,9.2,50,0.00,,,0.10,WUHU216HW,2013-04-25 19:40:00,
2013-04-25 14:45:00,49.7,29.6,30.09,WSW,248,11.4,11.4,46,0.00,,,0.10,WUHU216HW,2013-04-25 19:45:00,
2013-04-25 14:50:00,50.9,30.8,30.09,WSW,248,12.3,12.3,46,0.00,,,0.10,WUHU216HW,2013-04-25 19:50:00,
2013-04-25 14:55:00,51.3,30.0,30.09,WSW,248,12.8,14.3,44,0.00,,,0.10,WUHU216HW,2013-04-25 19:55:00,
2013-04-25 15:00:00,50.0,30.0,30.09,WSW,248,6.5,14.3,46,0.00,,,0.10,WUHU216HW,2013-04-25 20:00:00,
2013-04-25 15:05:00,50.8,30.1,30.09,West,270,7.8,12.8,45,0.00,,,0.10,WUHU216HW,2013-04-25 20:05:00,
2013-04-25 15:10:00,50.8,29.0,30.09,WSW,248,4.3,9.2,43,0.00,,,0.10,WUHU216HW,2013-04-25 20:10:00,
2013-04-25 15:15:00,50.8,29.5,30.09,NW,315,4.0,12.3,44,0.00,,,0.10,WUHU216HW,2013-04-25 20:15:00,
2013-04-25 15:20:00,50.8,29.5,30.09,WSW,248,11.0,12.3,44,0.00,,,0.10,WUHU216HW,2013-04-25 20:20:00,
2013-04-25 15:25:00,51.1,30.4,30.09,WSW,248,6.9,11.0,45,0.00,,,0.10,WUHU216HW,2013-04-25 20:25:00,
2013-04-25 15:30:00,51.1,30.4,30.09,WSW,248,11.4,13.0,45,0.00,,,0.10,WUHU216HW,2013-04-25 20:30:00,
2013-04-25 15:35:00,50.4,30.3,30.09,West,270,6.9,13.0,46,0.00,,,0.10,WUHU216HW,2013-04-25 20:35:00,
2013-04-25 15:40:00,49.7,29.1,30.09,NW,315,7.4,11.2,45,0.00,,,0.10,WUHU216HW,2013-04-25 20:40:00,
2013-04-25 15:45:00,50.0,31.7,30.09,West,270,4.5,9.8,49,0.00,,,0.10,WUHU216HW,2013-04-25 20:45:00,
2013-04-25 15:50:00,50.6,31.1,30.09,SW,225,7.6,8.1,47,0.00,,,0.10,WUHU216HW,2013-04-25 20:50:00,
2013-04-25 15:55:00,51.5,30.2,30.09,WNW,293,11.6,11.6,44,0.00,,,0.10,WUHU216HW,2013-04-25 20:55:00,
2013-04-25 16:00:00,51.5,30.2,30.09,SW,225,7.8,13.2,44,0.00,,,0.10,WUHU216HW,2013-04-25 21:00:00,
2013-04-25 16:05:00,52.2,30.2,30.09,WSW,248,9.6,13.2,43,0.00,,,0.10,WUHU216HW,2013-04-25 21:05:00,
2013-04-25 16:10:00,51.5,29.1,30.09,WNW,293,5.4,12.3,42,0.00,,,0.10,WUHU216HW,2013-04-25 21:10:00,
2013-04-25 16:15:00,51.1,29.3,30.09,WSW,248,5.4,11.4,43,0.00,,,0.10,WUHU216HW,2013-04-25 21:15:00,
2013-04-25 16:20:00,51.3,28.4,30.09,WSW,248,9.4,11.4,41,0.00,,,0.10,WUHU216HW,2013-04-25 21:20:00,
2013-04-25 16:25:00,51.5,29.1,30.09,West,270,9.2,16.1,42,0.00,,,0.10,WUHU216HW,2013-04-25 21:25:00,
2013-04-25 16:30:00,51.8,29.3,30.09,WSW,248,10.3,16.1,42,0.00,,,0.10,WUHU216HW,2013-04-25 21:30:00,
2013-04-25 16:35:00,52.0,30.1,30.09,WSW,248,8.7,13.4,43,0.00,,,0.10,WUHU216HW,2013-04-25 21:35:00,
2013-04-25 16:40:00,51.5,29.1,30.09,NW,315,6.9,12.3,42,0.00,,,0.10,WUHU216HW,2013-04-25 21:40:00,
2013-04-25 16:45:00,51.1,28.7,30.09,WNW,293,5.8,12.3,42,0.00,,,0.10,WUHU216HW,2013-04-25 21:45:00,
2013-04-25 16:50:00,51.3,28.9,30.09,WSW,248,13.0,14.1,42,0.00,,,0.10,WUHU216HW,2013-04-25 21:50:00,
2013-04-25 16:55:00,51.1,28.7,30.09,WSW,248,4.0,14.1,42,0.00,,,0.10,WUHU216HW,2013-04-25 21:55:00,
2013-04-25 17:00:00,51.1,28.7,30.09,WSW,248,5.4,13.0,42,0.00,,,0.10,WUHU216HW,2013-04-25 22:00:00,
2013-04-25 17:04:00,51.1,29.3,30.09,West,270,8.3,10.7,43,0.00,,,0.10,WUHU216HW,2013-04-25 22:04:00,
2013-04-25 17:09:00,50.6,28.3,30.09,WSW,248,5.4,10.5,42,0.00,,,0.10,WUHU216HW,2013-04-25 22:09:00,
2013-04-25 17:14:00,50.2,28.4,30.09,WSW,248,4.7,9.8,43,0.00,,,0.10,WUHU216HW,2013-04-25 22:14:00,
2013-04-25 17:19:00,49.9,28.7,30.09,WSW,248,7.4,9.8,44,0.00,,,0.10,WUHU216HW,2013-04-25 22:19:00,
2013-04-25 17:24:00,50.0,28.9,30.09,SSW,203,7.4,8.1,44,0.00,,,0.10,WUHU216HW,2013-04-25 22:24:00,
2013-04-25 17:29:00,50.6,29.9,30.09,West,270,4.3,7.8,45,0.00,,,0.10,WUHU216HW,2013-04-25 22:29:00,
2013-04-25 17:34:00,51.5,29.6,30.09,SW,225,8.5,11.2,43,0.00,,,0.10,WUHU216HW,2013-04-25 22:34:00,
2013-04-25 17:39:00,51.1,28.7,30.09,SW,225,10.5,11.6,42,0.00,,,0.10,WUHU216HW,2013-04-25 22:39:00,
2013-04-25 17:44:00,51.3,28.9,30.09,SW,225,3.4,11.6,42,0.00,,,0.10,WUHU216HW,2013-04-25 22:44:00,
2013-04-25 17:49:00,51.5,29.6,30.09,SW,225,10.1,11.4,43,0.00,,,0.10,WUHU216HW,2013-04-25 22:49:00,
2013-04-25 17:54:00,50.9,29.2,30.09,SSW,203,11.2,12.8,43,0.00,,,0.10,WUHU216HW,2013-04-25 22:54:00,
2013-04-25 17:59:00,50.8,29.0,30.09,WSW,248,10.1,12.8,43,0.00,,,0.10,WUHU216HW,2013-04-25 22:59:00,
2013-04-25 18:04:00,50.8,29.5,30.09,WSW,248,5.8,11.2,44,0.00,,,0.10,WUHU216HW,2013-04-25 23:04:00,
2013-04-25 18:09:00,50.8,29.0,30.09,SW,225,6.3,10.1,43,0.00,,,0.10,WUHU216HW,2013-04-25 23:09:00,
2013-04-25 18:14:00,50.4,29.2,30.09,SW,225,6.3,10.7,44,0.00,,,0.10,WUHU216HW,2013-04-25 23:14:00,
2013-04-25 18:19:00,50.6,29.3,30.09,South,180,4.7,10.7,44,0.00,,,0.10,WUHU216HW,2013-04-25 23:19:00,
2013-04-25 18:24:00,50.8,29.0,30.09,SW,225,7.6,11.4,43,0.00,,,0.10,WUHU216HW,2013-04-25 23:24:00,
2013-04-25 18:29:00,50.8,29.0,30.09,SW,225,9.8,11.4,43,0.00,,,0.10,WUHU216HW,2013-04-25 23:29:00,
2013-04-25 18:34:00,50.9,29.2,30.09,WSW,248,6.9,10.7,43,0.00,,,0.10,WUHU216HW,2013-04-25 23:34:00,
2013-04-25 18:39:00,51.3,30.0,30.09,SSW,203,6.5,13.9,44,0.00,,,0.10,WUHU216HW,2013-04-25 23:39:00,
2013-04-25 18:44:00,52.9,30.3,30.09,WSW,248,7.6,13.9,42,0.00,,,0.10,WUHU216HW,2013-04-25 23:44:00,
2013-04-25 18:49:00,54.0,30.8,30.09,SSW,203,6.7,9.8,41,0.00,,,0.10,WUHU216HW,2013-04-25 23:49:00,
2013-04-25 18:54:00,54.4,30.5,30.09,WSW,248,8.3,10.5,40,0.00,,,0.10,WUHU216HW,2013-04-25 23:54:00,
2013-04-25 18:59:00,54.2,30.3,30.09,SSW,203,7.6,10.5,40,0.00,,,0.10,WUHU216HW,2013-04-25 23:59:00,
2013-04-25 19:04:00,53.8,29.3,30.09,WSW,248,6.9,9.4,39,0.00,,,0.10,WUHU216HW,2013-04-26 00:04:00,
2013-04-25 19:09:00,54.2,30.3,30.09,SW,225,6.3,9.4,40,0.00,,,0.10,WUHU216HW,2013-04-26 00:09:00,
2013-04-25 19:14:00,54.0,30.3,30.09,WSW,248,6.5,7.8,40,0.00,,,0.10,WUHU216HW,2013-04-26 00:14:00,
2013-04-25 19:19:00,53.1,29.4,30.09,WSW,248,7.8,10.5,40,0.00,,,0.10,WUHU216HW,2013-04-26 00:19:00,
2013-04-25 19:24:00,51.3,28.4,30.09,WSW,248,6.3,10.5,41,0.00,,,0.10,WUHU216HW,2013-04-26 00:24:00,
2013-04-25 19:29:00,49.7,27.5,30.09,SW,225,5.8,9.6,42,0.00,,,0.10,WUHU216HW,2013-04-26 00:29:00,
2013-04-25 19:34:00,49.0,27.9,30.09,SSW,203,6.9,8.7,44,0.00,,,0.10,WUHU216HW,2013-04-26 00:34:00,
2013-04-25 19:39:00,48.4,27.9,30.09,WSW,248,6.7,6.9,45,0.00,,,0.10,WUHU216HW,2013-04-26 00:39:00,
2013-04-25 19:44:00,47.9,27.4,30.09,SW,225,4.7,8.1,45,0.00,,,0.10,WUHU216HW,2013-04-26 00:44:00,
2013-04-25 19:49:00,47.3,27.5,30.08,SW,225,4.7,8.1,46,0.00,,,0.10,WUHU216HW,2013-04-26 00:49:00,
2013-04-25 19:54:00,47.0,27.1,30.08,SW,225,5.6,6.9,46,0.00,,,0.10,WUHU216HW,2013-04-26 00:54:00,
2013-04-25 19:59:00,46.4,27.2,30.08,SSW,203,3.4,6.9,47,0.00,,,0.10,WUHU216HW,2013-04-26 00:59:00,
2013-04-25 20:04:00,46.1,27.4,30.09,WSW,248,4.7,6.3,48,0.00,,,0.10,WUHU216HW,2013-04-26 01:04:00,
2013-04-25 20:09:00,45.7,27.1,30.09,SW,225,4.0,5.4,48,0.00,,,0.10,WUHU216HW,2013-04-26 01:09:00,
2013-04-25 20:14:00,45.4,27.3,30.09,SSW,203,2.9,4.7,49,0.00,,,0.10,WUHU216HW,2013-04-26 01:14:00,
2013-04-25 20:19:00,45.0,27.0,30.09,SW,225,3.1,4.7,49,0.00,,,0.10,WUHU216HW,2013-04-26 01:19:00,
2013-04-25 20:24:00,44.6,27.2,30.09,SSW,203,1.8,3.6,50,0.00,,,0.10,WUHU216HW,2013-04-26 01:24:00,
2013-04-25 20:29:00,44.5,27.0,30.09,SW,225,3.1,3.8,50,0.00,,,0.10,WUHU216HW,2013-04-26 01:29:00,
2013-04-25 20:34:00,44.1,27.2,30.10,SW,225,2.2,4.9,51,0.00,,,0.10,WUHU216HW,2013-04-26 01:34:00,
2013-04-25 20:39:00,43.9,27.5,30.10,SW,225,2.2,4.9,52,0.00,,,0.10,WUHU216HW,2013-04-26 01:39:00,
2013-04-25 20:44:00,43.6,27.1,30.10,SW,225,1.8,2.9,52,0.00,,,0.10,WUHU216HW,2013-04-26 01:44:00,
2013-04-25 20:49:00,43.2,27.2,30.11,SW,225,2.9,3.4,53,0.00,,,0.10,WUHU216HW,2013-04-26 01:49:00,
2013-04-25 20:54:00,43.2,27.2,30.10,SSW,203,2.9,4.0,53,0.00,,,0.10,WUHU216HW,2013-04-26 01:54:00,
2013-04-25 20:59:00,43.0,27.0,30.11,SW,225,2.7,4.0,53,0.00,,,0.10,WUHU216HW,2013-04-26 01:59:00,
2013-04-25 21:04:00,42.8,26.8,30.11,SSW,203,2.7,3.8,53,0.00,,,0.10,WUHU216HW,2013-04-26 02:04:00,
2013-04-25 21:09:00,42.7,26.6,30.11,SW,225,2.2,3.8,53,0.00,,,0.10,WUHU216HW,2013-04-26 02:09:00,
2013-04-25 21:14:00,42.5,26.9,30.11,SW,225,2.5,3.1,54,0.00,,,0.10,WUHU216HW,2013-04-26 02:14:00,
2013-04-25 21:19:00,42.1,26.7,30.11,South,180,0.9,3.1,54,0.00,,,0.10,WUHU216HW,2013-04-26 02:19:00,
2013-04-25 21:24:00,41.6,26.6,30.11,West,270,0.4,1.8,55,0.00,,,0.10,WUHU216HW,2013-04-26 02:24:00,
2013-04-25 21:29:00,41.0,26.5,30.12,SW,225,1.1,1.3,56,0.00,,,0.10,WUHU216HW,2013-04-26 02:29:00,
2013-04-25 21:34:00,40.7,26.6,30.12,WSW,248,1.8,1.8,57,0.00,,,0.10,WUHU216HW,2013-04-26 02:34:00,
2013-04-25 21:39:00,40.5,27.3,30.12,SW,225,1.8,1.8,59,0.00,,,0.10,WUHU216HW,2013-04-26 02:39:00,
2013-04-25 21:44:00,40.1,27.4,30.12,SSW,203,1.8,2.0,60,0.00,,,0.10,WUHU216HW,2013-04-26 02:44:00,
2013-04-25 21:49:00,40.0,27.2,30.12,SW,225,1.1,2.0,60,0.00,,,0.10,WUHU216HW,2013-04-26 02:49:00,
2013-04-25 21:54:00,39.6,27.5,30.12,SSW,203,0.9,1.8,62,0.00,,,0.10,WUHU216HW,2013-04-26 02:54:00,
2013-04-25 21:59:00,39.2,27.6,30.12,SW,225,1.1,1.3,63,0.00,,,0.10,WUHU216HW,2013-04-26 02:59:00,
2013-04-25 22:04:00,39.2,27.6,30.13,SSW,203,2.0,2.0,63,0.00,,,0.10,WUHU216HW,2013-04-26 03:04:00,
2013-04-25 22:09:00,39.1,27.5,30.13,SSW,203,1.3,2.0,63,0.00,,,0.10,WUHU216HW,2013-04-26 03:09:00,
2013-04-25 22:14:00,38.7,27.1,30.13,SW,225,1.3,2.0,63,0.00,,,0.10,WUHU216HW,2013-04-26 03:14:00,
2013-04-25 22:19:00,38.7,27.1,30.13,SW,225,2.5,3.1,63,0.00,,,0.10,WUHU216HW,2013-04-26 03:19:00,
2013-04-25 22:24:00,38.7,27.1,30.13,SW,225,2.5,3.1,63,0.00,,,0.10,WUHU216HW,2013-04-26 03:24:00,
2013-04-25 22:29:00,38.9,27.3,30.13,SSW,203,2.9,3.4,63,0.00,,,0.10,WUHU216HW,2013-04-26 03:29:00,
2013-04-25 22:34:00,39.2,27.6,30.13,WSW,248,4.0,4.0,63,0.00,,,0.10,WUHU216HW,2013-04-26 03:34:00,
2013-04-25 22:39:00,39.8,28.2,30.13,SW,225,3.8,4.9,63,0.00,,,0.10,WUHU216HW,2013-04-26 03:39:00,
2013-04-25 22:44:00,40.0,28.4,30.13,WSW,248,4.0,4.9,63,0.00,,,0.10,WUHU216HW,2013-04-26 03:44:00,
2013-04-25 22:49:00,40.1,28.1,30.13,SSW,203,4.7,4.7,62,0.00,,,0.10,WUHU216HW,2013-04-26 03:49:00,
2013-04-25 22:54:00,40.3,28.3,30.13,South,180,4.0,5.4,62,0.00,,,0.10,WUHU216HW,2013-04-26 03:54:00,
2013-04-25 22:59:00,40.1,28.1,30.13,South,180,3.4,5.4,62,0.00,,,0.10,WUHU216HW,2013-04-26 03:59:00,
2013-04-25 23:01:00,40.0,27.9,30.13,SW,225,3.4,5.1,62,0.00,,,0.10,WUHU216HW,2013-04-26 04:01:00,
2013-04-25 23:06:00,40.0,27.9,30.13,WSW,248,4.5,4.7,62,0.00,,,0.10,WUHU216HW,2013-04-26 04:06:00,
2013-04-25 23:11:00,40.1,28.1,30.14,SSW,203,4.5,5.4,62,0.00,,,0.10,WUHU216HW,2013-04-26 04:11:00,
2013-04-25 23:16:00,40.3,27.9,30.13,SW,225,4.7,5.4,61,0.00,,,0.10,WUHU216HW,2013-04-26 04:16:00,
2013-04-25 23:21:00,40.5,28.1,30.13,SSW,203,4.0,5.4,61,0.00,,,0.10,WUHU216HW,2013-04-26 04:21:00,
2013-04-25 23:26:00,40.7,28.3,30.13,SSE,158,3.4,5.4,61,0.00,,,0.10,WUHU216HW,2013-04-26 04:26:00,
2013-04-25 23:31:00,40.7,27.9,30.14,SSW,203,4.7,4.9,60,0.00,,,0.10,WUHU216HW,2013-04-26 04:31:00,
2013-04-25 23:36:00,40.7,27.9,30.13,SW,225,3.6,5.1,60,0.00,,,0.10,WUHU216HW,2013-04-26 04:36:00,
2013-04-25 23:41:00,40.5,27.7,30.13,SW,225,3.8,5.4,60,0.00,,,0.10,WUHU216HW,2013-04-26 04:41:00,
2013-04-25 23:46:00,40.3,27.5,30.13,SSW,203,3.1,5.4,60,0.00,,,0.10,WUHU216HW,2013-04-26 04:46:00,
2013-04-25 23:51:00,40.1,27.4,30.13,SSW,203,4.7,6.3,60,0.00,,,0.10,WUHU216HW,2013-04-26 04:51:00,
2013-04-25 23:56:00,40.1,27.4,30.13,SW,225,4.3,6.3,60,0.00,,,0.10,WUHU216HW,2013-04-26 04:56:00,